Home > Weather > Saint-Georges > Past weeks

Flag for Canada Weather for the Past 2 Weeks in Saint-Georges, Quebec, Canada

Now
-9 °F

Frigid.


Feels Like: -27 °F
Forecast: -16 / -5 °F
Wind: 10 mph from West

Location: Beauceville

Current Time: Feb 14, 2016 at 2:20:03 PM

Latest Report: Feb 14, 2016 at 1:00 PM


Visibility: N/A

Pressure: 30.32 "Hg

Humidity: 47%

Dew point: -24 °F

Location of Saint-GeorgesLocation

Historic Weather in Saint-Georges — Graph

°F

Saint-Georges Temperature Yesterday

Maximum temperature yesterday: 7 °F (at 8:00 AM)
Minimum temperature yesterday: -10 °F (at 7:00 PM)
Average temperature yesterday: -1 °F

High & Low Weather Summary for the Past Weeks

 TemperatureHumidityPressure
High47 °F (Feb 1, 9:00 AM)100% (Jan 30, 7:00 PM)30.45 "Hg (Jan 30, 7:00 PM)
Low-18 °F (Feb 14, 7:00 AM)28% (Feb 7, 3:00 PM)29.35 "Hg (Feb 1, 8:00 AM)
Average17 °F76%29.92 "Hg
* Reported Jan 30 1:00 PM — Feb 14 1:00 PM, Saint-Georges, Weather by CustomWeather, © 2016

Note: Actual official high and low records may vary slightly from our data, if they occured in-between our weather recording intervals... More about our weather records

Advertising

Saint-Georges Weather History for the Previous 24 Hours

 ConditionsComfort  
Time TempWeatherWind HumidityBarometerVisibility
1:00 PM
Sun, Feb 14
-9 °FFrigid.10 mph47%30.32 "HgN/A
11:00 AM-11 °FExtremely cold.9 mph49%30.32 "HgN/A
10:00 AM-13 °FExtremely cold.7 mph54%30.33 "HgN/A
9:00 AM-16 °FExtremely cold.8 mph63%30.32 "HgN/A
8:00 AM-17 °FExtremely cold.5 mph67%30.32 "HgN/A
7:00 AM-18 °FExtremely cold.2 mph67%30.29 "HgN/A
6:00 AM-17 °FExtremely cold.3 mph68%30.26 "HgN/A
5:00 AM-16 °FExtremely cold.5 mph69%30.23 "HgN/A
4:00 AM-15 °FExtremely cold.3 mph69%30.20 "HgN/A
3:00 AM-14 °FExtremely cold.5 mph68%30.18 "HgN/A
2:00 AM-13 °FExtremely cold.3 mph66%30.15 "HgN/A
1:00 AM-12 °FExtremely cold.5 mph68%30.12 "HgN/A
12:00 AM-11 °FExtremely cold.8 mph70%30.11 "HgN/A
11:00 PM
Sat, Feb 13
-10 °FExtremely cold.7 mph70%30.10 "HgN/A
10:00 PM-10 °FFrigid.5 mph71%30.11 "HgN/A
9:00 PMN/A3 mphN/A30.09 "HgN/A
8:00 PM-10 °FExtremely cold.3 mph67%30.09 "HgN/A
7:00 PM-10 °FExtremely cold.5 mph66%30.09 "HgN/A
6:00 PM-10 °FFrigid.5 mph63%30.07 "HgN/A
5:00 PM-8 °FFrigid.5 mph57%30.02 "HgN/A
4:00 PM-6 °FFrigid.7 mph55%29.98 "HgN/A
3:00 PM-4 °FFrigid.8 mph54%29.94 "HgN/A
2:00 PM-1 °FFrigid.7 mph54%29.90 "HgN/A
Weather by CustomWeather, © 2016

See weather overviewHow to use our weather pages